Back to catalog

USA 120

AliveMilitaryLEO
NORAD 23907·PAYLOAD·🇺🇸 United States

Launched May 12, 1996 from Vandenberg Space Force Base

Loading…

Next Passes (next 24 hours)

TLE

FreshSource: Space-Track

Epoch: Sep 14, 2026, 11:14 UTC

1 23907U 96029B   26257.46860622  .00000606  00000-0  11521-3 0  9998
2 23907  63.3194 318.9225 0853553  51.2423 316.1785 13.46662601115671

Track USA 120 in real time with AllMySat

Download on the App Store